Regional Weather Roundup
Issued by NWS Wakefield, VA

Home | Current Version | Previous Version | Graphics & Text | Print | Product List | Glossary On
Versions: 1 2 3 4 5 6 7 8 9 10 11 12 13 14 15 16 17 18 19 20 21 22 23 24 25 26 27
000
ASUS41 KAKQ 260615
RWRAKQ

REGIONAL WEATHER ROUNDUP
NATIONAL WEATHER SERVICE WAKEFIELD VA
200 AM EDT FRI AUG 26 2016

Note: "fair" indicates few or no clouds below 12,000 feet with no
significant weather and/or obstructions to visibility. * = Denotes
station may not report precipitation (e.g., rain,snow,etc.),
thunder or fog.

VAZ042-051-052>054-056-260700-
NORTHERN VIRGINIA

CITY           SKY/WX    TMP DP  RH WIND       PRES   REMARKS
WASH NATIONAL  FAIR      79  74  84 S6        30.02S
DULLES         FAIR      77  73  87 CALM      30.02S
FORT BELVOIR   FAIR      73  72  94 CALM      30.01S FOG
QUANTICO       NOT AVBL
FREDERICKSBRG* FAIR      77  74  90 CALM      30.01S
STAFFORD*      FAIR      73  72  97 CALM      30.06S FOG
WARRENTON      HAZE      71  66  85 CALM      30.03R VSB 1
CULPEPER*      FAIR      73  73 100 CALM      30.04S FOG
MANASSAS*      FAIR      73  73 100 CALM      30.02S
LEESBURG*      FAIR      77  77 100 SW9       30.03S
WINCHESTER     FAIR      77  73  88 SW3       30.04F
FRONT ROYAL*   FAIR      73  73 100 S6        30.04S
LURAY*         FAIR     N/A N/A N/A CALM      30.07R HAZE
$$

VAZ048-049-060>072-079>083-260700-
CENTRAL AND SOUTH CENTRAL VIRGINIA

CITY           SKY/WX    TMP DP  RH WIND       PRES   REMARKS
RICHMOND       FAIR      75  70  84 S5        30.04F
CHESTERFIELD*  FAIR      75  59  57 S3        30.06F
PETERSBURG*    FAIR      74  74 100 S3        30.06S
HANOVER        FAIR      78  69  73 S6        30.05S
TAPPAHANNOCK*  FAIR      75  74  98 S3        30.04S
QUINTON*       FAIR      76  72  88 S5        30.04F
CHARLOTTSVILLE FAIR      77  75  93 SW3       30.05S
GORDONSVILLE*  FAIR      73  73 100 CALM      30.03F
ORANGE*          N/A     75  75 100 CALM      30.05S
LOUISA*        FAIR      79  75  89 CALM      30.03S
BUMPASS*       FAIR      75  73  92 CALM      30.03F
FARMVILLE*     FAIR     N/A N/A N/A CALM      30.04F
CREWE*         FAIR      73  73 100 CALM      30.05F
FORT PICKETT*  FAIR      73  72  98 SW12      30.06F
CHASE CITY*    FAIR      73  72  94 CALM      30.07S
CLARKSVILLE*   FAIR      73  72  94 S5        30.06F
SOUTH HILL*    FAIR      72  71  95 CALM      30.12F
LAWRENCEVILLE* FAIR      73  71  94 CALM      30.07S
EMPORIA*       FAIR      72  70  94 SE3       30.08S
$$

VAZ088>098-260700-
SOUTHEAST VIRGINIA

CITY           SKY/WX    TMP DP  RH WIND       PRES   REMARKS
NORFOLK        MOCLDY    77  68  73 SW12      30.06S
VIRGINIA BEACH FAIR      81  67  62 SW9       30.06S
NORFOLK NAVAL  FAIR      77  68  73 S9        30.07F
WEST POINT*    FAIR      76  70  81 SE5       30.06S
SALUDA*        FAIR      77  72  85 S7        30.04S
NEWPORT NEWS   FAIR      77  70  79 SW8       30.06S
LANGLEY AFB    CLOUDY    78  70  77 S12       30.05F
FORT EUSTIS    FAIR      78  71  79 S9        30.03F
WILLIAMSBURG*  FAIR      79  72  78 S7        30.06F
HR EXEC AP*    FAIR      73  68  83 S6        30.09F
FRANKLIN*      FAIR      74  68  83 S8        30.07F
US460-WAKEFLD  FAIR      75  69  81 VRB3      30.06S
$$

VAZ020-022-025-037-045-260700-
WEST CENTRAL AND SOUTHWEST VIRGINIA

CITY           SKY/WX    TMP DP  RH WIND       PRES   REMARKS
STAUNTON*      FAIR      68  68  98 CALM      30.12R FOG
WAYNESBORO*    FAIR      71  70  96 CALM      30.12R
HOT SPRINGS VA FAIR      70  70 100 W14       30.25R
LYNCHBURG      FAIR      73  72  96 CALM      30.10S
DANVILLE       FAIR      74  73  97 SW3       30.08F
SOUTH BOSTON*  FAIR      74  73  95 SW3       30.07S
MARTINSVILLE   FAIR      69  68  97 CALM      30.13S FOG
ROANOKE        FAIR      76  70  82 CALM      30.13S
BLACKSBURG     FAIR      69  69 100 CALM      30.22R FOG
DUBLIN*        FAIR      72  71  97 W3        30.20S
MARION*        FAIR      68  67  96 CALM      30.25S FOG
HILLSVILLE*    FAIR      70  69  98 SW5       30.22S
RICHLANDS*     FAIR      71  71 100 S3        30.24R
WISE*          FAIR      68  68 100 S3        30.24S
ABINGDON*      FAIR      71  71  99 CALM      30.20S
$$

MDZ021>025-VAZ099-100-260700-
SOUTHERN MARYLAND AND THE DELMARVA PENINSULA

CITY           SKY/WX    TMP DP  RH WIND       PRES   REMARKS
PATUXENT RIVER FAIR      78  71  79 S5        30.02S
BAY BRIDGE APT FAIR      79  75  89 S5        30.01S
LEONARDTOWN    FAIR      77  70  78 S3        30.04S
DOVER          FAIR      74  74 100 S8        30.00F
GEORGETOWN     FAIR      73  69  87 S8        30.03F
EASTON         FAIR      78  76  96 SW5       30.05F
CAMBRIDGE      FAIR      77  73  88 CALM      30.02S
SALISBURY      FAIR      73  70  90 S7        30.03F
OCEAN CITY     FAIR      78  71  79 SW8       30.04F
WALLOPS ISLAND FAIR      77  68  73 S13       30.05S
ACCOMACK*      FAIR      76  69  79 S8        30.05F
$$

NCZ012>017-030>032-260700-
NORTH CENTRAL AND EASTERN NORTH CAROLINA

CITY           SKY/WX    TMP DP  RH WIND       PRES   REMARKS
ROANOKE RAPIDS FAIR      72  68  88 S5        30.07S
RALEIGH        FAIR      77  69  76 CALM      30.09R
ELIZABETH CITY FAIR      72  67  84 S5        30.08S
AHOSKIE*       FAIR      71  68  89 CALM      30.08S
EDENTON*       FAIR      79  68  70 SW9       30.09S
CURRITUCK*       N/A     74  69  83 SW3       30.08F
KILL DEVIL HLS FAIR      76  72  87 CALM      30.07F
MANTEO         FAIR      79  69  73 SW10      30.09S
CAPE HATTERAS  FAIR      79  66  64 SE7       30.08F
TARBORO*       FAIR      74  69  83 CALM      30.09S
GOLDSBORO      FAIR      74  71  91 S1        30.08S
WASHINGTON     FAIR      73  68  83 CALM      30.09S
GREENVILLE     FAIR      73  70  88 SW5       30.10S
NEW BERN       FAIR      71  68  90 CALM      30.11S
WILMINGTON     FAIR      72  68  87 CALM      30.09S
$$

VAZ048-260700-
ELSEWHERE

CITY           SKY/WX    TMP DP  RH WIND       PRES   REMARKS
HARRISBURG PA  MOCLDY    80  75  84 CALM      29.98S
BALTIMORE      FAIR      77  72  84 SW3       30.00F
ANNAPOLIS      FAIR      79  73  82 VRB5      30.00S
ANDREWS AFB    FAIR      76  72  89 S6        30.01S
PHILADELPHIA   FAIR      77  70  79 SW8       30.00F
HENDERSON NC   FAIR      71  68  90 SW3       30.08S
GREENSBORO     FAIR      77  71  82 SW5       30.10S
ROCKY MOUNT    FAIR      73  70  90 S5        30.08S
$$

VAZ100-260700-
MARINE

STATION/POSITION TIME  TEMP    WIND        PRES    WAVE   SWELL
                       AIR SEA DIR/SP/G            HT/PER HT/PER
                 (UTC) (F)     (DEG/KT/KT) (MB)    (FT/S) (FT/S)
BRANDYWINE LGT   0500   75     220/ 13/ 15   N/A
CAPE MAY NJ      0500   74 74  170/  4/  6 1016.6F
LEWES DE         0500   76 73  210/  7/ 13 1016.7F
OCEAN-CITY-INLET 0500   76 78  220/ 11/ 13 1017.8R
WACHAPREAGUE VA  0500   78 81  200/ 11/ 14 1017.6S
THOMAS POINT MD  0600   80 81  190/ 11/ 11 1017.5S
GOOSES REEF MD   0600   81 82  210/ 10/ 12 1016.9S   1/ 2
COVE POINT MD    0500   79     220/  8/ 11 1017.1F
SOLOMONS ISLAND  0500   81 84  210/ 10/ 12   N/A
BISHOPS HEAD MD  0500   81 81  180/ 10/ 12 1017.1F
PINEY POINT MD   0500          230/ 13/ 14   N/A
POTOMAC MD       0600   80 83  220/ 14/ 16 1015.6F   1/ 2
CAMBRIDGE MD     0500   78 83  180/  6/  9 1015.8F
LEWISETTA VA     0500   79 82  220/  8/  9 1016.4F
RAPPAHANNOCK LGT 0500          180/ 17/ 18 1018.0R
STINGRAY PT      0500   81 83  140/ 12/ 14 1017.6R   2/ 3
YORK RVR RNG VA  0500   80     210/ 15/ 18 1017.1R
YORKTOWN VA      0500   79 83  210/  9/ 12 1017.2R
JAMESTOWN VA     0600   78 84  200/ 10/ 14   N/A     1
DOMINION TERM VA 0500   78     200/ 14/ 17 1018.0R
KIPTOPEKE VA     0500      79  200/ 13/ 15   N/A
CHES BAY BRIDGE  0500   78 81  180/ 13/ 18 1017.8R
CAPE HENRY VA    0500   76     190/ 10/ 13   N/A
WILLOUBY STN VA  0500   79     200/ 16/ 19   N/A
CAPE HENRY BUOY  0512      79                N/A     3/ 8
1ST LANDING BUOY 0600   78 78  220/ 12/ 16 1017.6S   2/ 4
CAPE CHARLES BUO 0526      77                N/A     3/ 8
OFFSHORE WE BUOY 0521      80                N/A     3/ 8
64NM E OF VA BCH 0550   80 81  200/ 12/ 14 1018.2R   3/ 8   2/ 8
DUCK PIER NC     0500   78 79  170/  8/ 10 1017.9S
44100 DUCK FRF   0505      79                N/A     2/ 8
44056 DUCK FRF   0511      78                N/A     2/ 8
OREGON INLET NC  0500   77 80  140/  4/  7 1018.6S
HATTERAS NC      0500   80 81  140/  5/  7 1018.5F
DIAMOND SHLS NC  0550   80 84  140/  2/  4 1018.6F   3/ 9   3/ 9
CAPE LOOKOUT NC  0600   80     150/  8/  8 1018.6S
$$




USA.gov is the U.S. government's official web portal to all federal, state and local government web resources and services.